Regional Weather Roundup
Issued by NWS

Home | Current Version | Previous Version | Graphics & Text | Print | Product List | Glossary Off
Versions: 1 2 3 4 5 6 7 8 9 10 11 12 13 14 15 16 17 18 19 20 21 22 23 24 25 26 27 28 29 30 31 32 33 34 35 36 37 38 39 40 41 42 43 44 45 46 47 48 49 50

000
ASUS43 KTOP 282059
RWRKS

WEATHER ROUNDUP FOR KANSAS
NATIONAL WEATHER SERVICE GOODLAND KS
400 PM CDT THU JUL 28 2016

NOTE:  "FAIR" INDICATES FEW OR NO CLOUDS BELOW 12,000 FEET WITH NO
SIGNIFICANT WEATHER AND/OR OBSTRUCTIONS TO VISIBILITY.

KSZ001>006-013>018-027>032-041>047-282200-
NORTHWEST KANSAS

CITY           SKY/WX    TMP DP  RH WIND       PRES   REMARKS
GOODLAND       SUNNY     83  61  47 E8        30.09F
HAYS           PTSUNNY   88  66  48 S13       29.95F
HILL CITY      MOSUNNY   87  65  47 VRB3      30.01R
RUSSELL        CLOUDY    90  66  45 E10G20    29.93F HAZE
$$

KSZ061>065-074>080-084>089-282200-
SOUTHWEST KANSAS

CITY           SKY/WX    TMP DP  RH WIND       PRES   REMARKS
DODGE CITY     SUNNY     90  59  35 E8        30.01F
ELKHART          N/A     93  61  34 S13         N/A
GARDEN CITY    SUNNY     89  62  40 SE15      30.01F
GREAT BEND     MOSUNNY   90  70  51 SE9       29.96F HX  95
LIBERAL        SUNNY     93  57  29 E12       30.03F
$$

KSZ066>073-081>083-090>101-282200-
SOUTHEAST KANSAS

CITY           SKY/WX    TMP DP  RH WIND       PRES   REMARKS
CHANUTE        PTSUNNY   91  71  51 N7        29.93F HX  97
COFFEYVILLE    CLOUDY    90  74  59 N9        29.93S HX  99
HUTCHINSON     SUNNY     94  69  44 E10       29.95F HX  99
NEWTON         SUNNY     89  69  51 E9        29.97F
PARSONS        CLOUDY    89  73  59 N7        29.94F HX  97
WICHITA INTL   CLOUDY    88  68  51 SE14      29.95S
WICHITA JABRA  CLOUDY    90  70  51 SE10      29.96S HX  95
WINFIELD       TSTM      70  65  84 NW29G51   30.02R
$$

KSZ007>012-019>026-033>040-048>060-102>105-282200-
NORTHEAST KANSAS

CITY           SKY/WX    TMP DP  RH WIND       PRES   REMARKS
CONCORDIA      SUNNY     89  62  40 E7        29.97F
EMPORIA        SUNNY     91  64  40 VRB6      29.95F
LAWRENCE       MOSUNNY   91  70  49 N10       29.93F HX  96
MANHATTAN      SUNNY     91  65  41 VRB3      29.94F
OLATHE IND     SUNNY     90  66  45 NW9       29.94F
OLATHE EXE     MOSUNNY   91  65  41 N10       29.94F
SALINA         SUNNY     93  64  38 NE7       29.95F
TOPEKA BILLARD MOSUNNY   92  66  42 NE6       29.93F
TOPEKA FORBES  SUNNY     93  67  42 NE7       29.94F HX  96
$$




USA.gov is the U.S. government's official web portal to all federal, state and local government web resources and services.